This is the latest recevied weather packets stored in our database for station/object K4WCH. If no packets are shown the sender has not sent any weather packets the latest 10 day(s).
| Time | Temp. | Humidity | Pressure | Rain* | Wind** | Luminosity | Snow |
|---|---|---|---|---|---|---|---|
| 1788190072 | 32.22° C | 66% | 1018.2 hPa | 0 mm | - | 969 W/m² | - |
| 1788189768 | 32.22° C | 67% | 1018.3 hPa | 0 mm | - | 496 W/m² | - |
| 1788189468 | 31.67° C | 70% | 1018.3 hPa | 0 mm | - | 922 W/m² | - |
| 1788189167 | 31.67° C | 70% | 1018.3 hPa | 0 mm | - | 922 W/m² | - |
| 1788188862 | - | - | - | 0 mm | - | - | - |
| 1788188558 | - | - | - | 0 mm | - | - | - |
| 1788188257 | 30.56° C | 76% | 1018.3 hPa | 0 mm | - | 249 W/m² | - |
| 1788187953 | 30.56° C | 76% | 1018.2 hPa | 0 mm | - | 249 W/m² | - |
| 1788187649 | 30.56° C | 76% | 1018.2 hPa | 0 mm | - | 249 W/m² | - |
| 1788187345 | 30.56° C | 76% | 1018.2 hPa | 0 mm | - | 249 W/m² | - |
| 1788187059 | 30.56° C | 76% | 1018.1 hPa | 0 mm | - | 249 W/m² | - |
| 1788186740 | 30.56° C | 76% | 1018.1 hPa | 0 mm | - | 249 W/m² | - |
| 1788186435 | 30.56° C | 76% | 1018.1 hPa | 0 mm | - | 249 W/m² | - |
| 1788186131 | 30.56° C | 76% | 1018 hPa | 0 mm | - | 249 W/m² | - |
| 1788185830 | 30.56° C | 76% | 1018.1 hPa | 0 mm | - | 249 W/m² | - |
| 1788185525 | 30.56° C | 76% | 1018.2 hPa | 0 mm | - | 249 W/m² | - |
| 1788185224 | 30.56° C | 76% | 1018.2 hPa | 0 mm | - | 249 W/m² | - |
| 1788184919 | 30.56° C | 76% | 1018 hPa | 0 mm | - | 249 W/m² | - |
| 1788184617 | 29.44° C | 84% | 1017.9 hPa | 0 mm | - | 467 W/m² | - |
| 1788184313 | 29.44° C | 84% | 1017.9 hPa | 0 mm | - | 467 W/m² | - |
| 1788184009 | 29.44° C | 84% | 1017.9 hPa | 0 mm | - | 467 W/m² | - |
| 1788183704 | 29.44° C | 84% | 1017.8 hPa | 0 mm | - | 467 W/m² | - |
| 1788183403 | 29.44° C | 84% | 1017.9 hPa | 0 mm | - | 467 W/m² | - |
| 1788183098 | 29.44° C | 84% | 1017.9 hPa | 0 mm | - | 467 W/m² | - |
| 1788182794 | 27.78° C | 89% | 1017.8 hPa | 0 mm | - | 292 W/m² | - |
* Rain latest hour (hover to see other rain measurements)
** Current wind speed in m/s (hover to see current wind gust speed)